« Back
NWS Peachtree City, Ga » Text Product » CSG Terminal Aerodrome Forecast


Printer-friendly Version
Current Version              Previous Versions:   1  2  3  4  5  6  7  8  9  

Terminal Aerodrome Forecast

474
FTUS42 KFFC 291700
TAFCSG
TAF
KCSG 291721Z 2918/3018 31008G16KT P6SM SCT050
     FM300000 32005KT P6SM SKC
     FM301300 04006KT P6SM FEW030=



USA.gov is the U.S. government's official web portal to all federal, state and local government web resources and services.